Miscellaneous Local Product
Issued by NWS Hastings, NE

Home | Current Version | Previous Version | Graphics & Text | Print | Product List | Glossary On
Versions: 1 2 3 4 5 6 7 8 9 10 11 12 13 14 15 16 17 18 19 20 21 22 23 24 25 26 27 28 29 30 31 32 33 34 35 36 37 38 39 40 41 42 43 44 45 46 47 48 49 50
000
AXUS43 KGID 010602
MISGRI

GID CWA HOURLY WEATHER ROUNDUP
NATIONAL WEATHER SERVICE HASTINGS NE
1200 AM CST SUN MAR 01 2015

NOTE: "FAIR" INDICATES FEW OR NO CLOUDS BELOW 12,000 FEET WITH NO
SIGNIFICANT WEATHER AND/OR OBSTRUCTIONS TO VISIBILITY.

...SOUTH CENTRAL NEBRASKA...

CITY           SKY/WX    TMP DP  RH WIND       PRES   REMARKS
GRAND ISLAND   CLEAR     15  12  88 S7        30.27F WCI   5
HASTINGS       CLEAR     15  12  88 S6        30.26S WCI   6
KEARNEY        CLEAR     14  10  85 S8        30.25F WCI   3
ORD            CLEAR     12   7  80 CALM      30.23F
YORK           PTCLDY    14  12  92 SW7       30.31R WCI   4
AURORA         CLEAR     15  11  86 S8        30.28F WCI   3
LEXINGTON      PTCLDY    15  12  88 S6        30.24R WCI   7
HOLDREGE       PTCLDY    13  10  90 S5        30.24F WCI   5
HEBRON         FLURRIES  20  15  80 CALM      30.34R

...NEBRASKA PANHANDLE...

CITY           SKY/WX    TMP DP  RH WIND       PRES   REMARKS
CHADRON        CLOUDY    20   9  62 NE13      30.18R WCI   7
ALLIANCE       MOCLDY    17  12  80 NE9       30.10R WCI   6
SCOTTSBLUFF    CLOUDY    23  14  68 NE9       30.09S WCI  13
SIDNEY         MOCLDY    19  15  84 S5        30.07R WCI  12

...WESTERN AND NORTH CENTRAL NEBRASKA...

CITY           SKY/WX    TMP DP  RH WIND       PRES   REMARKS
VALENTINE      MOCLDY    19   5  54 N6        30.20R WCI  11
AINSWORTH      PTCLDY    14   5  68 N8        30.19S WCI   2
ONEILL         PTCLDY    16  11  79 W3        30.22R
BROKEN BOW     PTCLDY    17  10  74 SW5       30.21S WCI  10
IMPERIAL         N/A     17  10  74 SE7       30.14F WCI   8
NORTH PLATTE   CLOUDY    17  10  74 S6        30.19S WCI   9
MCCOOK         MOCLDY    22  15  75 S8        30.21S WCI  12

...EASTERN NEBRASKA...

CITY           SKY/WX    TMP DP  RH WIND       PRES   REMARKS
NORFOLK        CLEAR     17  13  84 SW14      30.28R WCI   3
SO SIOUX CITY  CLEAR     16  12  84 S6        30.30F WCI   7
TEKAMAH        CLEAR     16  13  88 S9        30.33  WCI   4
COLUMBUS       CLEAR     16   7  67 SW7       30.32R WCI   6
ALBION         PTCLDY    13   9  83 S5        30.27S WCI   5
OMAHA EPPLEY   FLURRIES  23  15  71 SW8       30.36S WCI  14
OFFUTT AFB     CLOUDY    22  15  74 SW5       30.35S WCI  16
MILLARD        CLOUDY    23  15  73 SW7       30.35S WCI  15
LINCOLN        CLOUDY    21  14  74 SW10      30.35F WCI  10
NEBRASKA CITY  CLOUDY    21  17  82 SW3       30.35S
BEATRICE       CLOUDY    21  18  87 S5        30.33F WCI  15
FALLS CITY     CLOUDY    18  14  84 CALM      30.37S

...NORTHERN KANSAS...

CITY           SKY/WX    TMP DP  RH WIND       PRES   REMARKS
GOODLAND       CLOUDY    18  15  88 S9        30.13F WCI   7
HILL CITY      CLOUDY    20  15  81 CALM      30.27S
NORTON         CLOUDY    19  12  73 S5        30.24R WCI  13
PHILLIPSBURG   CLOUDY    21  18  86 CALM      30.29F
SMITH CENTER   CLOUDY    18  16  93 SE5       30.30F WCI  11
BELOIT         CLOUDY    21  18  86 SE3       30.33S
HAYS           PTCLDY    16   7  67 CALM      30.27S
RUSSELL        PTCLDY    17  15  92 SE7       30.28S WCI   8
CONCORDIA      CLOUDY    20  17  88 CALM      30.33S
SALINA         CLOUDY    22  17  81 S3        30.35F
TOPEKA         CLOUDY    23  18  81 CALM      30.38S



USA.gov is the U.S. government's official web portal to all federal, state and local government web resources and services.